Location: Strawberry
(45.6646°N, 111.9596°W)
Time: 07:34:27
(UTC+00:00)

AO-27 - Visible Passes

Search period start: 07 December 2022 00:00
Search period end: 17 December 2022 00:00
Orbit: 786 x 796 km, 98.9° (Epoch: 06 December)

Date Brightness Start Highest point End Pass type
(mag) Time Alt. Az. Time Alt. Az. Time Alt. Az.
07 Dec 9.7 01:09:56 11° NNE 01:09:56 11° NNE 01:10:09 10° NNE visible
07 Dec 9.9 02:50:41 15° NNW 02:50:41 15° NNW 02:51:31 10° NNW visible
08 Dec 9.7 02:21:06 16° N 02:21:06 16° N 02:22:06 10° N visible
09 Dec 9.6 01:51:31 14° NNE 01:51:31 14° NNE 01:52:27 10° N visible
09 Dec 10.4 03:32:16 10° NNW 03:32:16 10° NNW 03:32:19 10° NNW visible
10 Dec 9.7 01:21:56 12° NNE 01:21:56 12° NNE 01:22:24 10° NNE visible
10 Dec 10.1 03:02:40 13° NNW 03:02:40 13° NNW 03:03:15 10° NNW visible
11 Dec 9.8 02:33:05 15° N 02:33:05 15° N 02:33:55 10° N visible
12 Dec 9.7 02:03:29 15° N 02:03:29 15° N 02:04:22 10° N visible
13 Dec 9.7 01:33:52 12° NNE 01:33:52 12° NNE 01:34:30 10° NNE visible
13 Dec 10.2 03:14:37 12° NNW 03:14:37 12° NNW 03:14:56 10° NNW visible
14 Dec 9.9 02:45:00 14° N 02:45:00 14° N 02:45:42 10° N visible
15 Dec 9.7 02:15:23 15° N 02:15:23 15° N 02:16:14 10° N visible
15 Dec 10.8 14:19:16 10° ENE 14:20:54 11° E 14:22:32 10° ESE visible
16 Dec 9.7 01:45:45 13° NNE 01:45:45 13° NNE 01:46:30 10° N visible
16 Dec 10.4 03:26:30 10° NNW 03:26:30 10° NNW 03:26:35 10° NNW visible
